Hourly Weather Al-Kunajtira

Today, 8 March, Monday

Time Temperature Precipitation Wind Pressure Humidity
00:00 +10°C° 0 mm 3 mps 734 mmHg 89%
01:00 +10°C° 0 mm 3 mps 734 mmHg 91%
02:00 +10°C° 0 mm 2 mps 733 mmHg 92%
03:00 +10°C° 0 mm 2 mps 733 mmHg 92%
04:00 +10°C° 0 mm 2 mps 733 mmHg 92%
05:00 +9°C° 0 mm 2 mps 733 mmHg 93%
06:00 +10°C° 0.1 mm 3 mps 733 mmHg 89%
07:00 +12°C° 0.1 mm 3 mps 734 mmHg 85%
08:00 +13°C° 0 mm 4 mps 734 mmHg 79%
09:00 +14°C° 0.1 mm 5 mps 734 mmHg 74%
10:00 +15°C° 0.1 mm 6 mps 734 mmHg 69%
11:00 +16°C° 0.1 mm 7 mps 734 mmHg 64%
12:00 +16°C° 0.1 mm 7 mps 733 mmHg 63%
13:00 +16°C° 0.1 mm 8 mps 733 mmHg 63%
14:00 +16°C° 0 mm 8 mps 733 mmHg 61%
15:00 +15°C° 0 mm 7 mps 733 mmHg 66%
16:00 +14°C° 0 mm 6 mps 733 mmHg 71%
17:00 +13°C° 0 mm 5 mps 733 mmHg 76%
18:00 +12°C° 0 mm 4 mps 734 mmHg 80%
19:00 +12°C° 0 mm 3 mps 734 mmHg 85%
20:00 +12°C° 0 mm 2 mps 734 mmHg 90%
21:00 +10°C° 0.1 mm 2 mps 734 mmHg 90%
22:00 +10°C° 0.1 mm 2 mps 734 mmHg 91%
23:00 +10°C° 0.1 mm 2 mps 735 mmHg 91%

Tomorrow, 9 March, Tuesday

Time Temperature Precipitation Wind Pressure Humidity
00:00 +10°C° 0.1 mm 2 mps 734 mmHg 90%
01:00 +10°C° 0.1 mm 2 mps 734 mmHg 89%
02:00 +10°C° 0.1 mm 2 mps 734 mmHg 89%
03:00 +10°C° 0 mm 2 mps 734 mmHg 89%
04:00 +9°C° 0 mm 2 mps 735 mmHg 89%
05:00 +9°C° 0 mm 2 mps 735 mmHg 90%
06:00 +10°C° 0 mm 2 mps 735 mmHg 84%
07:00 +12°C° 0 mm 2 mps 735 mmHg 79%
08:00 +13°C° 0 mm 2 mps 736 mmHg 74%
09:00 +13°C° 0.1 mm 3 mps 736 mmHg 69%
10:00 +14°C° 0.1 mm 4 mps 736 mmHg 64%
11:00 +17°C° 0.1 mm 4 mps 736 mmHg 59%
12:00 +16°C° 0 mm 5 mps 736 mmHg 57%
13:00 +16°C° 0 mm 5 mps 736 mmHg 56%
14:00 +16°C° 0 mm 5 mps 735 mmHg 55%
15:00 +15°C° 0 mm 4 mps 735 mmHg 59%
16:00 +14°C° 0 mm 4 mps 735 mmHg 64%
17:00 +13°C° 0 mm 3 mps 736 mmHg 69%
18:00 +14°C° 0 mm 2 mps 736 mmHg 72%
19:00 +13°C° 0 mm 2 mps 736 mmHg 74%
20:00 +12°C° 0 mm 1 mps 736 mmHg 77%
21:00 +12°C° 0 mm 1 mps 736 mmHg 78%
22:00 +12°C° 0 mm 1 mps 736 mmHg 79%
23:00 +11°C° 0 mm 1 mps 736 mmHg 80%

Day after tomorrow, 10 March, Wednesday

Time Temperature Precipitation Wind Pressure Humidity
00:00 +11°C° 0 mm 1 mps 736 mmHg 82%
01:00 +10°C° 0 mm 1 mps 736 mmHg 83%
02:00 +9°C° 0 mm 0 mps 736 mmHg 84%
03:00 +10°C° 0 mm 1 mps 736 mmHg 85%
04:00 +10°C° 0 mm 1 mps 735 mmHg 86%
05:00 +9°C° 0 mm 1 mps 735 mmHg 86%
06:00 +11°C° 0 mm 1 mps 736 mmHg 82%
07:00 +12°C° 0 mm 1 mps 736 mmHg 77%
08:00 +13°C° 0 mm 1 mps 736 mmHg 73%
09:00 +14°C° 0 mm 2 mps 736 mmHg 67%
10:00 +16°C° 0 mm 3 mps 736 mmHg 61%
11:00 +18°C° 0 mm 3 mps 735 mmHg 55%
12:00 +19°C° 0 mm 4 mps 735 mmHg 53%
13:00 +19°C° 0 mm 4 mps 734 mmHg 50%
14:00 +20°C° 0 mm 4 mps 733 mmHg 48%
15:00 +19°C° 0 mm 4 mps 733 mmHg 52%
16:00 +19°C° 0 mm 4 mps 732 mmHg 56%
17:00 +18°C° 0 mm 4 mps 732 mmHg 60%
18:00 +16°C° 0 mm 3 mps 731 mmHg 62%
19:00 +14°C° 0 mm 3 mps 731 mmHg 64%
20:00 +13°C° 0 mm 3 mps 731 mmHg 66%
21:00 +13°C° 0 mm 3 mps 731 mmHg 68%
22:00 +12°C° 0 mm 3 mps 731 mmHg 70%
23:00 +11°C° 0 mm 3 mps 730 mmHg 71%

11 March, Thursday

Time Temperature Precipitation Wind Pressure Humidity
00:00 +11°C° 0 mm 3 mps 730 mmHg 72%
01:00 +11°C° 0 mm 3 mps 730 mmHg 73%
02:00 +12°C° 0 mm 2 mps 729 mmHg 74%
03:00 +10°C° 0 mm 2 mps 729 mmHg 74%
04:00 +10°C° 0 mm 2 mps 730 mmHg 74%
05:00 +10°C° 0 mm 2 mps 730 mmHg 75%
06:00 +12°C° 0 mm 2 mps 730 mmHg 71%
07:00 +13°C° 0 mm 2 mps 730 mmHg 68%
08:00 +14°C° 0 mm 2 mps 731 mmHg 64%
09:00 +15°C° 0 mm 1 mps 731 mmHg 62%
10:00 +16°C° 0 mm 1 mps 731 mmHg 60%
11:00 +18°C° 0 mm 1 mps 731 mmHg 57%
12:00 +18°C° 0.1 mm 3 mps 730 mmHg 60%
13:00 +19°C° 0.1 mm 4 mps 730 mmHg 62%
14:00 +19°C° 0.1 mm 6 mps 729 mmHg 64%
15:00 +17°C° 0 mm 6 mps 729 mmHg 68%
16:00 +16°C° 0 mm 6 mps 729 mmHg 71%
17:00 +15°C° 0 mm 6 mps 729 mmHg 75%
18:00 +14°C° 0 mm 6 mps 728 mmHg 80%
19:00 +13°C° 0 mm 5 mps 728 mmHg 84%
20:00 +12°C° 0 mm 5 mps 728 mmHg 89%
21:00 +11°C° 0 mm 6 mps 728 mmHg 87%
22:00 +11°C° 0 mm 6 mps 728 mmHg 86%
23:00 +11°C° 0 mm 7 mps 727 mmHg 84%

12 March, Friday

Time Temperature Precipitation Wind Pressure Humidity
00:00 +11°C° 0.2 mm 8 mps 727 mmHg 83%
01:00 +11°C° 0.2 mm 9 mps 726 mmHg 81%
02:00 +11°C° 0.2 mm 11 mps 725 mmHg 80%
03:00 +11°C° 0.3 mm 10 mps 725 mmHg 81%
04:00 +11°C° 0.3 mm 9 mps 725 mmHg 82%
05:00 +11°C° 0.3 mm 8 mps 725 mmHg 84%
06:00 +11°C° 0.1 mm 7 mps 727 mmHg 78%
07:00 +12°C° 0.1 mm 7 mps 728 mmHg 71%
08:00 +12°C° 0.1 mm 7 mps 729 mmHg 65%
09:00 +13°C° 0 mm 6 mps 730 mmHg 56%
10:00 +14°C° 0 mm 6 mps 731 mmHg 48%
11:00 +15°C° 0 mm 6 mps 732 mmHg 39%
12:00 +15°C° 0 mm 5 mps 732 mmHg 36%
13:00 +15°C° 0 mm 5 mps 733 mmHg 34%
14:00 +15°C° 0 mm 5 mps 733 mmHg 32%
15:00 +13°C° 0 mm 4 mps 734 mmHg 36%
16:00 +12°C° 0 mm 3 mps 734 mmHg 39%
17:00 +11°C° 0 mm 3 mps 735 mmHg 43%
18:00 +10°C° 0 mm 2 mps 735 mmHg 42%
19:00 +10°C° 0 mm 1 mps 736 mmHg 41%
20:00 +8°C° 0 mm 1 mps 737 mmHg 40%
21:00 +8°C° 0 mm 1 mps 737 mmHg 41%
22:00 +7°C° 0 mm 1 mps 737 mmHg 41%
23:00 +7°C° 0 mm 1 mps 737 mmHg 42%

13 March, Saturday

Time Temperature Precipitation Wind Pressure Humidity
00:00 +6°C° 0 mm 1 mps 737 mmHg 43%
01:00 +6°C° 0 mm 1 mps 737 mmHg 43%
02:00 +6°C° 0 mm 1 mps 737 mmHg 44%
03:00 +5°C° 0 mm 1 mps 737 mmHg 45%
04:00 +5°C° 0 mm 1 mps 738 mmHg 45%
05:00 +5°C° 0 mm 1 mps 738 mmHg 45%
06:00 +6°C° 0 mm 1 mps 738 mmHg 43%
07:00 +6°C° 0 mm 2 mps 739 mmHg 41%
08:00 +8°C° 0 mm 2 mps 739 mmHg 39%
09:00 +9°C° 0 mm 2 mps 739 mmHg 37%
10:00 +11°C° 0 mm 3 mps 739 mmHg 35%
11:00 +12°C° 0 mm 3 mps 740 mmHg 32%
12:00 +13°C° 0 mm 3 mps 739 mmHg 31%
13:00 +15°C° 0 mm 2 mps 739 mmHg 31%
14:00 +16°C° 0 mm 2 mps 738 mmHg 30%
15:00 +15°C° 0 mm 2 mps 738 mmHg 34%
16:00 +14°C° 0 mm 2 mps 738 mmHg 39%
17:00 +14°C° 0 mm 2 mps 738 mmHg 43%
18:00 +12°C° 0 mm 2 mps 738 mmHg 41%
19:00 +10°C° 0 mm 2 mps 738 mmHg 39%
20:00 +9°C° 0 mm 2 mps 738 mmHg 37%
21:00 +8°C° 0 mm 2 mps 738 mmHg 37%
22:00 +9°C° 0 mm 1 mps 738 mmHg 37%
23:00 +8°C° 0 mm 1 mps 738 mmHg 37%
Show more